Starlink 1663

operational
NORAD ID: 46535 Int'l Des: 2020-070 Owner: SPXS Country: US Constellation: starlink
LEOCIRCULARSTARLINK_TYPE

About Starlink 1663

Description loading...

Live Position

Loading 3D Globe...

Upcoming Passes

Altitude History

Altitude vs Time

uPlot chart will show altitude changes over time

Two-Line Element Set

1 46535U 20070D 25258.24410181 -.00000016 00000-0 17796-4 0 9997
2 46535 53.0501 244.2251 0001469 86.7609 273.3548 15.06393952273057
Epoch: Sep 15, 2025 • Age: 15 hours

Current Status

Altitude 549.6 km
Velocity 7.59 km/s
Sub-Earth Point 37.97°N, 79.21°E
Launch Date Oct 6, 2020
Age 4.9 years
Type internet

Technical Details

Classification Payload
Mass 260.00 kg
Dry Mass 248.00 kg
Total Mass 260.00 kg
Length 0.20 m
Diameter 2.80 m
Span 9.00 m
Shape Box + pan
Manufacturer SPXS
Bus Type Starlink
Phase Status In Orbit
Owner/State SPXS/US

Large Constellations

Loading constellations...